Location: Betpouey
(42.8833°N, 0.0333°E)
Time: 05:57:12
(UTC+00:00)

Meteor 2-13 Rocket - Pass Details

Date: 24 June 2021
Orbit: 935 x 958 km, 82.5° (Epoch: 26 July)

Event Time Altitude Azimuth Distance (km) Brightness Sun altitude
Exits shadow 22:19:12 - 96° (E) 2,773 6.6 -19.6°
Reaches altitude 10° 22:20:06 10° 87° (E) 2,692 6.6 -19.7°
Maximum altitude 22:21:10 11° 77° (ENE) 2,659 6.7 -19.7°
Drops below altitude 10° 22:22:15 10° 67° (ENE) 2,695 6.8 -19.8°
Sets 22:27:23 0° 30° (NNE) 3,646 8.0 -20.2°
